KK4KTV-13 Weather Reports


Display with metric or nautical units.
time (UTC)temp
F
wind
direction
speed
MPH
gust
MPH
rain 1hr
in
rain 24hr
in
rain mn
in
humidity
%
barometer
mb
20260503191106 0 197 7.0 9.0 0.00 0.00 0.00 1017.4
20260503190603 0 214 4.0 4.0 0.00 0.00 0.00 1017.6
20260503190100 0 264 8.0 11.0 0.00 0.00 0.00 1017.6
20260503185556 0 246 6.0 8.0 0.00 0.00 0.00 1017.6
20260503185056 0 279 7.0 15.0 0.00 0.00 0.00 1017.7
20260503184552 0 218 2.0 8.0 0.00 0.00 0.00 1017.8
20260503184049 0 209 4.0 7.0 0.00 0.00 0.00 1018.1
20260503183545 0 149 2.0 6.0 0.00 0.00 0.00 1018.1
20260503183043 0 183 5.0 8.0 0.00 0.00 0.00 1018.2
20260503182541 0 149 4.0 8.0 0.00 0.00 0.00 1018.1
20260503182039 0 212 9.0 11.0 0.00 0.00 0.00 1018.3
20260503181530 0 189 6.0 11.0 0.00 0.00 0.00 1018.4
20260503181026 0 282 4.0 8.0 0.00 0.00 0.00 1018.4
20260503180524 0 295 5.0 8.0 0.00 0.00 0.00 1018.4
20260503180020 0 263 5.0 8.0 0.00 0.00 0.00 1018.5
20260503175518 0 236 10.0 13.0 0.00 0.00 0.00 1018.4
20260503175009 0 271 2.0 7.0 0.00 0.00 0.00 1018.8
20260503174507 0 251 4.0 9.0 0.00 0.00 0.00 1018.8
20260503174003 0 301 7.0 9.0 0.00 0.00 0.00 1019.1
20260503173458 0 287 2.0 8.0 0.00 0.00 0.00 1019.0
20260503172955 0 263 7.0 13.0 0.00 0.00 0.00 1019.0
20260503172452 0 272 5.0 8.0 0.00 0.00 0.00 1019.0
20260503171948 0 210 2.0 8.0 0.00 0.00 0.00 1019.3
20260503171445 0 245 1.0 4.0 0.00 0.00 0.00 1019.2
20260503170943 0 287 6.0 9.0 0.00 0.00 0.00 1019.4
20260503170439 0 252 4.0 10.0 0.00 0.00 0.00 1019.4
20260503150831 56 266 3.0 7.0 0.00 0.00 0.00 44 1020.4
20260503150327 55 140 6.0 7.0 0.00 0.00 0.00 40 1020.5
20260503140251 51 256 2.0 2.0 0.00 0.00 0.00 83 1020.4
20260503131221 42 23 0.0 0.0 0.00 0.00 0.00 99 1020.6
20260503130718 41 24 1.0 2.0 0.00 0.00 0.00 99 1020.8
20260503130215 41 23 0.0 0.0 0.00 0.00 0.00 99 1020.5
20260503120141 33 23 0.0 0.0 0.00 0.00 0.00 99 1020.4
20260503110609 30 24 0.0 0.0 0.00 0.00 0.00 99 1019.6
20260503110106 30 24 0.0 0.0 0.00 0.00 0.00 99 1019.6
20260503090444 32 24 0.0 0.0 0.00 0.00 0.00 99 1019.1
20260503081405 33 24 0.0 0.0 0.00 0.00 0.00 99 1019.1
20260503080901 33 24 0.0 0.0 0.00 0.00 0.00 99 1019.0
20260503080358 33 24 0.0 0.0 0.00 0.00 0.00 99 1018.8
20260503072834 34 24 0.0 0.0 0.00 0.00 0.00 99 1018.7
20260503072331 35 24 0.0 0.0 0.00 0.00 0.00 99 1018.8
20260503071827 35 24 0.0 0.0 0.00 0.00 0.00 99 1018.8
20260503071325 35 24 0.0 0.0 0.00 0.00 0.00 99 1018.9
20260503070821 34 24 0.0 0.0 0.00 0.00 0.00 98 1018.9
20260503070319 34 24 0.0 0.0 0.00 0.00 0.00 98 1018.7
20260503060245 37 24 0.0 0.0 0.00 0.00 0.00 98 1018.6
20260503054732 38 25 1.0 2.0 0.00 0.00 0.00 98 1018.5
20260503054229 38 24 1.0 2.0 0.00 0.00 0.00 98 1018.4
20260503053727 38 50 2.0 2.0 0.00 0.00 0.00 98 1018.3
20260503053225 38 75 2.0 3.0 0.00 0.00 0.00 98 1018.5
20260503052721 38 85 2.0 2.0 0.00 0.00 0.00 98 1018.5
20260503052218 38 50 1.0 2.0 0.00 0.00 0.00 98 1018.5
20260503051713 38 270 0.0 0.0 0.00 0.00 0.00 97 1018.2
20260503051211 38 17 1.0 2.0 0.00 0.00 0.00 97 1018.2
20260503050707 38 357 1.0 2.0 0.00 0.00 0.00 97 1018.2
20260503050203 38 346 1.0 1.0 0.00 0.00 0.00 97 1018.3
20260503045700 38 328 1.0 1.0 0.00 0.00 0.00 96 1018.4
20260503045153 37 245 0.0 0.0 0.00 0.00 0.00 96 1018.2
20260503044649 37 245 0.0 0.0 0.00 0.00 0.00 96 1018.2
20260503044147 38 245 0.0 0.0 0.00 0.00 0.00 96 1018.2
20260503043643 38 245 0.0 0.0 0.00 0.00 0.00 96 1018.1
20260503043141 39 245 0.0 0.0 0.00 0.00 0.00 97 1018.1
20260503042637 39 243 0.0 0.0 0.00 0.00 0.00 97 1018.1
20260503042133 39 246 0.0 0.0 0.00 0.00 0.00 96 1017.9
20260503041629 38 246 0.0 0.0 0.00 0.00 0.00 96 1017.9
20260503041127 38 246 0.0 0.0 0.00 0.00 0.00 96 1018.2
20260503040624 38 246 0.0 0.0 0.00 0.00 0.00 95 1017.9
20260503040122 38 246 0.0 0.0 0.00 0.00 0.00 95 1017.9
20260503035618 38 246 0.0 0.0 0.00 0.00 0.00 94 1017.7
20260503035116 38 246 0.0 0.0 0.00 0.00 0.00 94 1017.7
20260503034613 39 246 0.0 0.0 0.00 0.00 0.00 94 1017.7
20260503034110 39 246 0.0 0.0 0.00 0.00 0.00 94 1017.7
20260503033608 39 246 0.0 0.0 0.00 0.00 0.00 93 1017.7
20260503033105 39 246 0.0 0.0 0.00 0.00 0.00 93 1017.8
20260503032603 40 246 0.0 0.0 0.00 0.00 0.00 93 1017.5
20260503032101 40 246 0.0 0.0 0.00 0.00 0.00 93 1017.6
20260503031559 41 246 0.0 0.0 0.00 0.00 0.00 93 1017.7
20260503031056 41 246 0.0 0.0 0.00 0.00 0.00 93 1017.5
20260503030552 41 246 0.0 0.0 0.00 0.00 0.00 91 1017.7
20260503030049 41 246 0.0 0.0 0.00 0.00 0.00 90 1017.5
20260503025545 42 246 0.0 0.0 0.00 0.00 0.00 91 1017.5
20260503025043 42 245 0.0 0.0 0.00 0.00 0.00 91 1017.6
20260503024539 42 246 0.0 0.0 0.00 0.00 0.00 89 1017.8
20260503024037 43 246 0.0 0.0 0.00 0.00 0.00 89 1017.6
20260503023533 43 245 1.0 1.0 0.00 0.00 0.00 89 1017.5
20260503023031 44 246 0.0 1.0 0.00 0.00 0.00 88 1017.4
20260503022526 44 246 0.0 0.0 0.00 0.00 0.00 88 1017.2
20260503022021 44 246 0.0 0.0 0.00 0.00 0.00 87 1017.2
20260503021519 44 246 0.0 0.0 0.00 0.00 0.00 87 1017.4
20260503021015 44 246 0.0 0.0 0.00 0.00 0.00 86 1017.3
20260503020513 44 245 0.0 0.0 0.00 0.00 0.00 85 1017.4
20260503020009 44 245 0.0 1.0 0.00 0.00 0.00 85 1017.4
20260503015506 44 244 1.0 1.0 0.00 0.00 0.00 85 1017.1
20260503015003 44 245 0.0 0.0 0.00 0.00 0.00 83 1017.1
20260503014459 44 245 0.0 0.0 0.00 0.00 0.00 81 1017.0
20260503013957 45 245 0.0 0.0 0.00 0.00 0.00 80 1017.0
20260503013454 46 243 1.0 1.0 0.00 0.00 0.00 80 1017.1
20260503012951 47 243 1.0 1.0 0.00 0.00 0.00 78 1016.9
20260503012449 48 325 0.0 0.0 0.00 0.00 0.00 72 1017.0
20260503011945 48 325 0.0 0.0 0.00 0.00 0.00 71 1016.8
20260503011442 49 326 0.0 1.0 0.00 0.00 0.00 70 1016.5
20260503010939 49 345 1.0 2.0 0.00 0.00 0.00 69 1016.6
20260503010436 50 349 1.0 2.0 0.00 0.00 0.00 69 1016.7
20260503005933 50 14 2.0 3.0 0.00 0.00 0.00 68 1016.6
20260503005430 50 327 1.0 2.0 0.00 0.00 0.00 67 1016.4
20260503004927 50 329 1.0 2.0 0.00 0.00 0.00 67 1016.5
20260503004424 50 356 1.0 2.0 0.00 0.00 0.00 66 1016.4
20260503003921 50 347 3.0 4.0 0.00 0.00 0.00 66 1016.4
20260503003418 51 337 2.0 3.0 0.00 0.00 0.00 66 1016.3
20260503002915 51 356 2.0 2.0 0.00 0.00 0.00 66 1016.3
20260503002412 51 19 1.0 2.0 0.00 0.00 0.00 66 1016.3
20260503001909 51 23 2.0 2.0 0.00 0.00 0.00 65 1016.3
20260503001404 51 330 2.0 3.0 0.00 0.00 0.00 65 1016.1
20260503000903 52 0 1.0 2.0 0.00 0.00 0.00 64 1015.9
20260503000400 52 1 3.0 8.0 0.00 0.00 0.00 63 1016.0
20260502235857 52 338 5.0 7.0 0.00 0.00 0.00 62 1016.0
20260502235354 53 9 6.0 7.0 0.00 0.00 0.00 61 1016.0
20260502234851 53 346 5.0 7.0 0.00 0.00 0.00 60 1016.0
20260502234348 54 14 7.0 8.0 0.00 0.00 0.00 58 1015.7
20260502233844 54 8 3.0 4.0 0.00 0.00 0.00 56 1015.5
20260502233340 54 352 3.0 4.0 0.00 0.00 0.00 55 1015.8
20260502232838 54 335 4.0 4.0 0.00 0.00 0.00 55 1015.7
20260502232334 55 349 5.0 7.0 0.00 0.00 0.00 53 1015.7
20260502231830 55 324 2.0 4.0 0.00 0.00 0.00 53 1015.7
20260502231328 56 333 3.0 4.0 0.00 0.00 0.00 51 1015.5
20260502230826 56 4 3.0 3.0 0.00 0.00 0.00 51 1015.6
20260502230324 56 338 4.0 7.0 0.00 0.00 0.00 50 1015.5
20260502225820 56 322 4.0 4.0 0.00 0.00 0.00 50 1015.5
20260502225317 56 328 5.0 8.0 0.00 0.00 0.00 50 1015.6
20260502224813 57 7 3.0 6.0 0.00 0.00 0.00 49 1015.4
20260502224310 56 335 1.0 4.0 0.00 0.00 0.00 48 1015.6
20260502223808 56 331 4.0 6.0 0.00 0.00 0.00 48 1015.5
20260502223306 57 324 5.0 9.0 0.00 0.00 0.00 48 1015.5
20260502222802 56 302 2.0 7.0 0.00 0.00 0.00 48 1015.5
20260502222254 56 325 5.0 10.0 0.00 0.00 0.00 50 1015.4
20260502221750 57 290 5.0 7.0 0.00 0.00 0.00 49 1015.3
20260502221246 56 67 4.0 6.0 0.00 0.00 0.00 51 1015.4
20260502220744 56 1 4.0 6.0 0.00 0.00 0.00 52 1015.6
20260502220239 57 339 6.0 10.0 0.00 0.00 0.00 52 1015.6
20260502215736 56 32 4.0 6.0 0.00 0.00 0.00 52 1015.6
20260502215234 56 355 4.0 7.0 0.00 0.00 0.00 51 1015.4
20260502214731 56 10 7.0 10.0 0.00 0.00 0.00 52 1015.5
20260502214227 56 34 4.0 7.0 0.00 0.00 0.00 52 1015.6
20260502213725 56 10 5.0 8.0 0.00 0.00 0.00 52 1015.4
20260502213222 55 7 4.0 7.0 0.00 0.00 0.00 52 1015.5
20260502212720 56 321 5.0 8.0 0.00 0.00 0.00 51 1015.5
20260502212218 55 346 5.0 7.0 0.00 0.00 0.00 52 1015.5
20260502211714 55 344 7.0 8.0 0.00 0.00 0.00 52 1015.6
20260502211211 55 336 2.0 4.0 0.00 0.00 0.00 52 1015.5
20260502210708 55 342 7.0 8.0 0.00 0.00 0.00 52 1015.6
20260502210205 55 335 2.0 6.0 0.00 0.00 0.00 51 1015.6
20260502205702 55 321 1.0 8.0 0.00 0.00 0.00 54 1015.6
20260502205153 56 48 7.0 9.0 0.00 0.00 0.00 52 1015.7
20260502204650 56 315 5.0 7.0 0.00 0.00 0.00 52 1015.5
20260502204148 55 326 3.0 9.0 0.00 0.00 0.00 52 1015.7
20260502203644 55 345 7.0 8.0 0.00 0.00 0.00 54 1015.8
20260502203143 55 332 6.0 10.0 0.00 0.00 0.00 54 1015.8
20260502202637 55 327 3.0 7.0 0.00 0.00 0.00 54 1015.7
20260502202135 55 313 6.0 9.0 0.00 0.00 0.00 54 1015.7
20260502201632 55 332 6.0 9.0 0.00 0.00 0.00 56 1015.9
20260502201128 55 352 6.0 8.0 0.00 0.00 0.00 55 1015.7
20260502200624 55 8 8.0 11.0 0.00 0.00 0.00 55 1015.9
20260502200122 55 20 6.0 9.0 0.00 0.00 0.00 55 1015.6
20260502195620 56 278 9.0 10.0 0.00 0.00 0.00 54 1015.8
20260502195115 56 340 2.0 6.0 0.00 0.00 0.00 53 1015.8
20260502194613 56 325 4.0 4.0 0.00 0.00 0.00 52 1015.7
20260502194109 56 326 2.0 3.0 0.00 0.00 0.00 52 1015.9
20260502193606 56 303 4.0 8.0 0.00 0.00 0.00 53 1015.8
20260502193103 55 318 3.0 6.0 0.00 0.00 0.00 54 1015.9
20260502192558 55 305 6.0 8.0 0.00 0.00 0.00 55 1015.8
20260502192056 55 345 4.0 6.0 0.00 0.00 0.00 54 1015.9
20260502191552 55 342 5.0 7.0 0.00 0.00 0.00 56 1015.8